Вернуться в каталог

STARLINK-31679

АктивенСвязьVLEO
NORAD 59519·PAYLOAD·🇺🇸 United States

Запущен Apr 17, 2024 с Cape Canaveral Space Force Station

Loading…

Ближайшие Пролёты (ближайшие 24 часа)

TLE

СвежийSource: CelesTrak SupGP

Эпоха: Sep 14, 2026, 20:37 UTC

1 59519C 24073J   26257.85951389 -.00030587  00000+0 -11079-2 0  2576
2 59519  43.0032 319.1134 0001469 274.7781 273.2357 15.27590718    16

Отслеживайте STARLINK-31679 в реальном времени с AllMySat

Download on the App Store